Flag for Germany Weather past 2 weeks in Cuxhaven, Lower Saxony, Germany

Now
61 °F

Scattered clouds.


Feels Like: 61 °F
Forecast: 54 / 59 °F
Wind: 18 mph from Northwest

Location: Nordholz

Current Time: Sep 21, 2014 at 6:27:09 PM

Latest Report: Sep 21, 2014 at 5:20 PM


Visibility: N/A

Pressure: 29.95 "Hg

Humidity: 68%

Dew point: 50 °F

Location of CuxhavenLocation

Historic Weather in Cuxhaven — Graph

°F

Cuxhaven temperature yesterday

Maximum temperature yesterday: 72 °F (at 1:20 PM)
Minimum temperature yesterday: 55 °F (at 6:20 AM)
Average temperature yesterday: 62 °F

Past Weeks' High & Low Weather Summary

 TemperatureHumidityPressure
High75 °F (Sep 19, 3:20 PM)100% (Sep 6, 11:20 PM)30.27 "Hg (Sep 6, 11:20 PM)
Low54 °F (Sep 8, 12:20 AM)53% (Sep 17, 1:20 PM)29.86 "Hg (Sep 6, 5:20 PM)
Average62 °F83%30.05 "Hg
* Reported Sep 6 5:20 PM — Sep 21 5:20 PM, Cuxhaven, Weather by CustomWeather, © 2014

Note: Actual official high and low records may vary slightly from our data, if they occured in-between our weather recording intervals... More about our weather records

Advertising

Cuxhaven weather history for previous 24 hours

 ConditionsComfort  
Time TempWeatherWind HumidityBarometerVisibility
5:20 PM
Sep 21
61 °FScattered clouds.18 mph68%29.95 "HgN/A
4:20 PM61 °FScattered clouds.20 mph68%29.95 "HgN/A
3:20 PM57 °FSprinkles. Broken clouds.16 mph82%29.95 "Hg5 mi
2:20 PM61 °FSprinkles. Scattered clouds.20 mph72%29.95 "Hg5 mi
1:20 PM63 °FScattered clouds.18 mph64%29.95 "HgN/A
12:20 PM63 °FScattered clouds.17 mph59%29.95 "HgN/A
11:20 AM63 °FPassing clouds.20 mph59%29.95 "HgN/A
10:20 AM63 °FScattered showers. Scattered clouds.14 mph64%29.95 "HgN/A
9:20 AM63 °FScattered clouds.16 mph68%29.95 "HgN/A
8:20 AM59 °FScattered clouds.15 mph82%29.92 "HgN/A
7:20 AM61 °FPartly cloudy.16 mph83%29.92 "HgN/A
6:20 AM61 °FPartly cloudy.12 mph88%29.89 "HgN/A
5:20 AM61 °FMostly cloudy.6 mph88%29.89 "HgN/A
4:20 AM61 °FFog.5 mph83%29.92 "Hg3 mi
3:20 AM61 °FFog.7 mph88%29.92 "Hg2 mi
2:20 AM61 °FFog.8 mph94%29.92 "Hg2 mi
1:20 AM61 °FFog.8 mph94%29.92 "Hg2 mi
12:20 AM61 °FFog.6 mph94%29.92 "Hg1 mi
11:20 PM
Sep 20
61 °FFog.7 mph94%29.92 "Hg1 mi
10:20 PM61 °FFog.7 mph100%29.92 "Hg1 mi
9:20 PM61 °FFog.2 mph94%29.92 "Hg1 mi
9:00 PM61 °FFog.3 mph94%29.92 "Hg1 mi
8:20 PM61 °FFog.3 mph94%29.92 "Hg2 mi
8:00 PM63 °FFog.3 mph88%29.92 "Hg2 mi
7:20 PM64 °FFog.3 mph83%29.92 "Hg2 mi
Weather by CustomWeather, © 2014

See weather overviewHow to use our weather pages